{"data":{"norad_id":55364,"epoch":"2026-05-24T16:02:17.905056Z","epoch_age_seconds":103686,"freshness":"FRESH","line1":"1 55364U 23013AK  26144.66826279  .00000043  00000+0  11074-4 0  9998","line2":"2 55364  43.0022 237.7044 0001500 263.2500  96.8181 15.27577399183254","mean_motion":15.27577399,"eccentricity":0.00015,"inclination_deg":43.0022,"raan_deg":237.7044,"arg_perigee_deg":263.25,"mean_anomaly_deg":96.8181,"bstar":1.1074e-5,"rev_number":18325,"period_min":94.266909221272,"perigee_km":482.02770529775,"apogee_km":484.08606346307,"semimajor_km":6861.1938843804,"source":"CELESTRAK","updated_at":"2026-05-25T13:38:17.766292Z"}}